Location: Aulagny
(45.1643°N, 4.3096°E)
Time: 20:54:25
(UTC+00:00)

Abrixas rocket - Pass Details

Date: 21 October 2019
Orbit: 359 x 368 km, 48.4° (Epoch: 16 November)

Event Time Altitude Azimuth Distance (km) Brightness Sun altitude
Rises 17:50:23 0° 256° (WSW) 2,218 7.8 -11.7°
Reaches altitude 10° 17:52:26 10° 259° (WSW) 1,370 6.3 -12.0°
Maximum altitude 17:55:29 69° 343° (NNW) 401 2.1 -12.6°
Enters shadow 17:57:15 23° 63° (ENE) 852 3.3 -12.9°
